Theta_e
298 291 289 293 295 295 295 293 292 295 299 295 294 294 296 300 299 298 299 300 303 305 308 311 316 317 319 322 323 322 323 326 335 338 339 336 342 343 343 345 344 343 344 345
293 289 297 300 299 296 294 292 290 295 298 295 293 293 296 298 298 299 300 301 301 304 306 311 313 314 316 318 319 321 326 327 328 326 327 331 334 336 341 344 344 346 344 341
291 295 301 299 296 294 292 291 291 291 295 296 293 291 294 298 300 301 302 303 303 302 305 308 311 313 316 316 316 317 317 320 323 326 323 323 323 325 326 328 332 343 347 345
293 298 298 296 295 295 288 296 295 294 290 283 292 283 291 294 297 299 301 302 303 304 305 307 310 312 314 315 315 316 318 317 317 322 323 321 320 318 320 323 327 328 332 343
293 295 294 294 295 297 292 297 294 293 289 286 288 284 289 294 294 297 299 302 302 303 302 307 310 313 314 314 313 313 315 316 317 319 319 321 321 323 325 325 322 322 329 338
295 300 298 296 299 299 299 294 292 290 286 281 287 286 287 291 294 298 300 302 303 302 305 307 309 312 311 310 311 314 314 314 317 318 319 319 319 323 323 322 323 327 329 329
294 295 299 301 295 298 295 288 281 279 278 280 289 288 289 295 299 299 300 301 301 302 303 304 305 308 307 308 310 313 314 314 318 318 321 319 319 320 323 324 325 325 324 322
289 287 297 301 297 294 293 292 285 278 276 282 290 284 289 299 300 302 303 303 302 299 300 302 307 308 308 309 309 312 312 311 318 320 320 322 321 321 320 322 324 325 326 326
288 289 299 299 299 297 293 289 293 287 288 282 283 289 295 299 298 301 301 303 299 300 299 300 304 306 307 308 311 311 311 312 316 318 319 319 319 319 320 320 320 324 327 329
293 287 296 298 299 298 294 297 286 287 280 277 283 285 285 292 295 299 299 300 301 302 301 301 303 304 305 306 308 312 312 312 313 315 313 315 318 321 322 321 321 320 321 325
296 291 291 296 292 290 291 288 289 290 285 280 278 281 292 293 295 295 298 300 300 301 300 301 301 304 305 306 304 308 313 313 314 314 316 315 314 315 315 318 321 323 324 325
297 292 287 290 296 298 294 291 290 285 283 285 285 284 298 297 296 297 299 302 302 303 303 303 303 302 304 305 305 305 312 313 315 315 315 315 315 316 315 316 317 319 322 326
296 289 282 285 288 292 291 291 292 291 289 284 282 284 299 298 300 300 299 300 302 304 304 305 307 306 304 303 304 305 308 312 313 315 312 310 312 310 310 312 315 317 318 320
301 290 287 282 286 289 287 290 291 290 284 284 286 287 292 296 297 298 298 300 301 303 304 306 306 307 305 305 306 307 307 308 310 311 310 310 311 311 312 314 314 315 318 319
293 286 289 290 292 292 290 289 289 287 288 285 287 289 292 295 297 296 300 301 302 302 304 304 304 306 304 306 307 309 308 308 310 310 310 308 312 312 311 311 312 313 315 316
292 285 289 287 290 289 287 289 289 289 290 289 290 289 296 298 298 298 300 301 303 304 305 306 306 306 308 308 308 309 310 310 310 310 309 310 311 312 311 312 312 313 313 311
286 284 281 279 286 286 281 287 289 290 291 292 286 291 297 296 297 297 298 300 302 303 303 303 304 305 306 306 309 308 309 309 310 311 311 312 311 311 309 310 311 309 308 309
286 284 283 279 283 275 286 295 295 290 293 295 295 297 298 297 299 301 300 300 300 303 304 303 303 303 303 305 306 308 309 309 309 309 310 311 312 311 310 309 308 306 306 307
293 287 279 277 276 285 288 293 291 291 290 297 293 296 298 299 298 296 301 301 299 300 301 301 303 303 303 304 306 306 307 308 309 309 309 310 311 311 310 307 306 306 306 306
293 290 282 279 274 273 288 297 300 298 286 296 296 295 295 296 289 293 300 301 301 303 303 302 303 303 303 303 304 305 306 306 307 309 310 311 311 311 311 310 308 307 306 306
286 285 279 279 276 284 294 297 299 284 286 294 295 295 293 291 293 296 298 298 299 302 302 303 303 302 302 303 303 302 303 303 305 306 307 306 307 310 311 311 310 307 305 306
284 282 282 285 282 275 297 296 288 291 293 293 293 293 292 293 295 296 297 297 299 299 301 302 300 300 301 301 302 301 301 304 305 305 305 306 307 309 310 310 310 309 307 304
283 290 287 286 284 294 294 295 294 293 291 291 292 293 294 293 293 293 293 294 296 297 298 299 298 299 300 300 300 299 301 303 304 304 304 306 307 307 307 307 308 308 307 304
292 295 287 288 293 290 292 294 294 293 292 294 295 296 294 293 292 292 293 293 293 294 296 297 296 296 297 300 301 300 301 302 302 302 303 304 304 304 305 306 306 306 305 303
292 293 288 288 290 291 294 293 293 294 295 296 297 294 293 292 291 292 292 292 292 294 295 296 295 296 297 298 299 300 301 303 303 304 304 305 306 307 307 306 305 305 305 305
293 288 286 285 290 290 290 293 294 294 294 295 295 292 293 293 291 290 290 292 292 292 294 294 295 295 296 298 300 301 303 304 303 303 305 307 305 304 305 306 303 299 301 299
Wind_Speed
9 4 7 15 13 13 11 12 8 9 10 10 13 11 8 7 4 7 8 5 9 9 9 10 11 10 10 8 5 3 3 1 3 2 2 8 8 5 3 4 7 5 5 7
6 9 14 18 13 9 9 12 8 9 11 12 12 12 9 8 5 5 7 10 9 9 8 10 13 11 9 10 9 6 4 2 1 1 2 4 3 6 6 3 6 4 6 6
9 10 14 13 9 7 7 11 7 9 15 12 8 13 13 8 8 9 14 13 14 11 11 12 14 14 11 9 8 8 7 5 3 2 2 2 4 3 6 4 2 4 6 6
10 9 13 12 9 5 6 9 13 12 7 4 5 13 15 9 15 18 19 17 20 21 10 11 13 8 10 8 8 8 7 6 3 1 2 4 2 3 5 6 3 5 4 7
12 11 11 14 13 9 10 8 10 10 7 7 7 9 17 8 11 16 18 19 13 15 8 11 15 15 11 10 8 8 8 7 5 5 4 3 4 3 3 3 3 5 6 8
13 14 12 15 18 17 16 7 8 5 3 10 13 10 17 14 6 9 15 20 9 11 14 16 13 12 9 9 9 8 9 8 7 6 6 6 4 4 4 3 2 2 4 5
17 20 19 18 21 19 12 8 7 7 5 15 13 14 15 7 4 7 10 15 9 10 11 11 11 14 10 11 10 9 10 8 8 7 7 8 7 7 7 6 5 5 5 5
12 12 9 11 14 11 11 18 9 12 6 13 12 10 10 9 8 9 5 9 3 5 7 8 15 14 12 10 9 10 10 9 9 9 9 7 8 5 5 6 5 4 5 5
10 13 11 14 18 13 8 6 7 5 13 3 5 10 14 21 6 8 9 10 4 7 4 5 7 7 7 8 11 12 10 9 9 10 8 7 7 7 6 8 7 5 4 5
7 18 6 11 14 11 8 6 4 2 5 7 8 10 7 5 5 8 4 6 12 5 6 3 5 8 7 8 9 12 13 14 13 10 8 7 8 7 7 6 7 7 6 7
14 9 12 10 8 7 8 7 3 4 4 4 4 7 2 3 5 7 6 7 10 14 4 8 8 9 9 9 8 9 13 14 11 11 9 8 8 8 7 6 7 7 7 8
16 11 13 12 10 11 8 6 6 0 3 2 5 10 7 5 2 3 6 7 5 13 11 8 13 9 8 8 9 9 10 11 13 13 10 11 8 7 7 6 6 7 7 6
5 3 6 7 4 4 3 2 6 5 4 8 6 5 9 18 7 10 8 6 4 5 18 12 17 20 8 8 8 8 8 11 12 12 13 9 9 9 8 8 6 7 6 7
5 6 9 8 12 10 13 12 12 8 4 6 8 13 21 16 11 13 8 7 6 7 19 10 13 27 19 9 9 8 8 8 9 9 9 9 9 9 8 8 7 6 6 5
3 1 5 10 14 16 15 21 18 18 11 12 17 16 17 11 14 9 13 11 14 18 19 18 19 9 11 4 4 5 6 7 7 8 9 9 11 11 10 9 9 8 7 7
3 3 6 12 14 17 20 17 18 14 16 17 17 18 2 7 8 9 10 3 4 6 7 15 2 2 5 6 3 4 3 5 5 4 6 8 11 10 10 8 8 7 7 6
5 3 3 9 9 12 11 12 11 10 15 10 6 6 9 7 8 8 7 6 7 5 6 12 12 10 8 4 6 7 7 5 6 7 6 7 8 10 12 11 8 8 7 6
7 4 3 7 6 3 9 8 1 9 6 1 9 12 13 9 8 11 8 7 8 5 6 7 9 9 8 8 8 7 7 8 9 10 12 13 12 13 13 13 12 9 8 9
2 4 1 1 3 10 9 6 3 5 3 7 4 12 13 17 15 10 8 12 7 7 7 7 8 9 9 11 11 10 13 15 15 15 16 16 17 17 14 14 14 13 10 10
7 5 5 1 2 4 4 8 11 6 6 15 11 11 13 14 11 10 15 17 22 18 13 12 13 13 13 13 13 14 11 13 12 10 11 11 15 19 21 19 18 15 11 12
3 2 2 3 4 5 11 12 13 4 7 18 17 15 15 12 11 19 19 20 20 19 19 19 19 16 11 14 16 19 18 17 15 12 13 15 16 18 18 19 17 15 12 11
1 0 0 1 3 5 10 4 3 5 9 14 15 14 16 18 18 20 20 21 22 21 21 18 17 17 16 18 18 20 19 15 13 15 17 20 20 16 14 14 14 14 13 12
4 3 3 3 6 6 5 2 4 8 11 13 16 20 21 24 25 24 25 24 23 25 21 20 22 22 15 16 19 22 20 17 16 17 20 18 18 17 17 19 19 14 15 13
4 5 2 6 4 15 15 7 13 16 15 18 21 17 21 26 23 24 19 19 18 19 19 18 20 19 20 16 16 18 21 20 21 23 25 24 24 26 28 23 21 19 17 15
3 6 6 6 4 16 2 15 14 19 20 20 17 19 23 19 21 21 19 20 19 19 17 16 17 17 20 20 20 20 20 19 20 22 23 24 20 21 24 27 23 20 21 18
3 1 2 4 11 6 15 20 23 22 23 24 22 25 20 17 19 20 18 17 17 19 18 17 19 19 20 19 21 22 19 18 21 23 22 16 0 6 6 13 15 19 16 18
Wind_Direction
275 206 238 235 233 236 255 269 278 310 325 336 304 295 295 269 240 274 288 279 271 225 194 172 148 134 124 104 100 121 169 50 41 127 217 175 129 290 181 256 252 207 189 177
262 251 241 246 260 272 289 296 299 310 315 299 296 294 288 274 238 242 255 277 248 256 243 159 152 152 151 147 131 90 77 17 19 46 1 357 214 120 304 180 246 245 240 207
240 265 279 267 275 254 277 296 283 266 270 272 294 290 294 276 271 274 270 250 249 216 218 176 168 164 146 138 136 130 118 89 2 263 339 3 48 343 152 259 233 251 227 215
257 264 285 298 287 294 259 271 285 294 333 278 5 300 289 289 295 290 275 275 244 240 203 177 165 129 131 140 131 126 130 128 160 2 196 194 229 244 290 168 174 243 291 264
274 290 299 297 294 277 243 242 277 287 287 318 300 281 282 270 264 272 277 260 236 216 189 139 139 135 143 138 146 158 155 158 179 192 208 206 213 212 236 313 183 204 232 233
273 274 277 264 275 278 287 263 254 258 272 269 263 249 270 274 273 306 320 304 215 135 126 121 131 141 144 157 162 164 166 195 192 189 210 219 225 247 280 241 230 232 259 225
245 246 250 256 253 256 254 271 273 279 264 258 253 253 251 310 259 249 305 334 123 121 135 142 141 148 162 173 177 167 176 199 199 200 206 209 217 221 231 247 241 222 238 250
272 287 269 299 315 298 214 228 241 250 236 267 274 255 267 228 215 237 264 212 268 108 131 154 161 170 180 186 176 165 182 197 192 199 214 212 204 207 215 225 234 248 260 265
286 281 309 306 309 318 317 290 245 282 283 294 261 277 283 266 278 237 209 287 350 154 134 116 148 150 155 175 189 185 181 187 189 188 189 208 217 224 228 231 216 211 226 252
313 310 259 292 302 297 290 269 282 208 240 241 232 248 243 3 333 8 11 312 211 190 146 158 159 169 188 189 175 186 187 191 197 189 198 193 197 222 229 236 248 248 246 245
324 299 300 300 283 293 330 327 317 48 323 288 278 268 113 50 29 358 22 19 3 344 252 197 213 209 207 201 202 196 194 197 194 195 196 197 211 206 206 210 223 226 243 253
281 276 286 268 276 290 292 69 73 282 302 299 262 259 331 103 151 104 322 334 351 327 331 335 315 218 211 197 201 205 199 197 193 200 189 200 201 200 203 235 231 223 227 231
20 301 309 319 328 344 82 210 161 161 209 231 276 270 349 308 187 242 214 241 267 319 311 312 343 313 214 218 215 216 204 194 198 191 188 194 195 185 200 217 240 250 234 234
260 243 205 256 273 289 297 303 290 183 190 264 245 265 281 284 254 229 223 206 204 270 268 240 219 250 264 214 208 208 210 200 199 185 180 190 194 189 192 199 216 243 254 255
90 304 309 292 301 293 268 269 283 281 269 225 255 250 260 319 336 290 223 218 219 228 226 240 238 274 240 205 229 246 242 218 194 188 200 215 192 191 195 197 204 214 237 249
342 240 261 264 270 275 281 286 280 278 295 286 262 261 101 325 303 357 1 357 36 323 332 316 343 24 111 93 4 339 329 326 297 227 221 208 191 193 195 205 208 193 217 257
253 225 315 282 285 304 299 282 304 317 306 319 331 305 332 328 327 315 317 325 310 357 353 328 341 327 320 287 239 244 240 236 253 266 259 237 212 203 202 201 191 194 202 224
231 250 229 279 338 272 251 63 179 193 296 48 352 354 321 295 276 279 308 337 3 320 304 316 316 306 297 299 298 274 247 230 226 231 239 239 232 223 212 198 197 199 200 203
128 179 287 157 226 272 295 12 342 43 50 75 52 315 321 335 329 311 327 340 308 295 292 280 273 279 289 290 283 273 274 265 253 241 238 238 239 233 215 205 206 205 204 212
77 59 137 344 229 264 38 14 323 272 239 8 2 332 325 327 309 300 333 327 323 320 304 293 283 280 275 276 277 274 260 266 252 244 251 257 257 247 236 225 214 214 212 216
193 207 195 230 253 287 24 4 325 301 325 335 338 337 337 321 304 312 314 310 305 298 302 296 287 281 296 302 291 279 276 269 267 258 257 254 253 247 244 238 228 209 203 210
248 305 112 255 252 291 21 329 24 310 320 328 326 319 311 304 306 309 309 307 306 302 297 297 301 299 292 287 281 274 271 279 275 266 264 261 252 235 231 225 215 215 206 208
27 112 222 200 243 72 12 74 38 353 322 324 316 313 308 309 305 305 299 292 289 288 288 290 287 283 288 288 275 273 277 278 276 271 267 263 256 257 245 226 215 209 214 217
287 48 343 356 348 2 338 2 355 335 319 311 314 316 319 300 305 299 298 298 303 299 290 293 297 296 291 288 292 290 291 285 278 273 268 263 252 242 231 226 221 216 217 222
6 347 340 278 338 336 283 331 316 310 306 314 304 316 303 299 300 302 302 304 299 296 293 295 294 291 291 291 288 284 279 276 275 273 272 269 268 258 237 213 205 205 208 209
353 72 322 276 329 299 293 307 311 310 316 323 310 316 309 302 299 304 298 296 294 291 294 294 289 287 285 286 283 277 278 275 276 278 278 279 346 327 38 138 154 162 174 185